Weather Service Report


675 
ASUS46 KLOX 311613
RWRCA 

SOUTHERN CALIFORNIA WEATHER ROUNDUP
NATIONAL WEATHER SERVICE OXNARD CALIFORNIA
900 AM PDT MON AUG 31 2015

NOTE: "FAIR" INDICATES FEW OR NO CLOUDS BELOW 12,000 FEET WITH NO 
SIGNIFICANT WEATHER AND/OR OBSTRUCTIONS TO VISIBILITY.

  -  STATIONS PRECEEDED BY AN ASTERISK (*) ARE NOT NWS OR FAA 
     STATIONS AND ARE NOT SUBJECT TO NWS AND FAA QUALITY CONTROL.

CAZ041-042-087-311700-
LA AND ORANGE COUNTY COASTAL AREAS

  
CITY           SKY/WX    TMP DP  RH WIND       PRES   REMARKS
L.A. DOWNTOWN  CLOUDY    75  64  68 CALM      29.89S                  
L.A. AIRPORT   PTSUNNY   72  64  76 E5        29.91R                  
LONG BEACH     CLOUDY    73  64  73 VRB5      29.90R                  

CITY           SKY/WX    TMP DP  RH WIND       PRES   REMARKS
AVALON           N/A     70 N/A N/A N2          N/A                   
FULLERTON      CLOUDY    72  64  76 CALM      29.90R                  
*GETTY CENTER    N/A     72  63  73 S3G9        N/A                   
HAWTHORNE      CLOUDY    72  64  76 SE6       29.91R                  
*LEO CARRILLO    N/A     77  64  65 S2          N/A                   
*LOS ALAMITOS  CLOUDY    72  64  76 SE8       29.90R                  
*REDONDO BEACH   N/A     70  64  79 SE1       29.91R                  
SANTA ANA      CLOUDY    70  63  78 VRB5      29.91R                  
STA MONICA APT CLOUDY    72  64  76 SW3       29.91R                  
TORRANCE       CLOUDY    72  64  78 S12       29.92R                  
*UCLA            N/A     72  63  73 SE1       29.88S                  

$$

CAZ547-548-048-311700-
LA COUNTY VALLEYS AND INLAND EMPIRE

  
CITY           SKY/WX    TMP DP  RH WIND       PRES   REMARKS
BURBANK        SUNNY     72  63  73 SE3       29.91R                  
VAN NUYS       SUNNY     72  63  73 CALM      29.91R                  

CITY           SKY/WX    TMP DP  RH WIND       PRES   REMARKS
CORONA AIRPORT SUNNY     73  64  73 W7        29.91R                  
*CHATSWORTH      N/A     74  64  70 CALM      29.89R                  
CHINO          MOSUNNY   74  64  71 W6        29.92R                  
MARCH AFB      SUNNY     73  61  65 SW3       29.92R                  
ONTARIO        MOSUNNY   72  62  71 SW7       29.91R                  
*PASADENA        N/A     72  66  83 E2          N/A                   
RIVERSIDE      SUNNY     72  63  73 VRB3      29.91R                  
SAN BERNARDINO MOSUNNY   73  57  56 CALM      29.91S                  
*SAN GABRIEL     N/A     71  65  81 S1        29.97R                  
*SAN RAFAEL HI   N/A     71  71 100 CALM        N/A                   
*SAUGUS          N/A     66  53  63 CALM        N/A                   
*WHITEMAN AP   NOT AVBL                                               
*WHITTIER HILL   N/A     70  67  90 SW2         N/A                   
*WOODLAND HILL   N/A     73  63  68 NE2         N/A                   

$$

CAZ054-055-311700-
LA AND SAN BERNARDINO COUNTY MOUNTAINS

  
CITY           SKY/WX    TMP DP  RH WIND       PRES   REMARKS
*ACTON           N/A     68  48  49 NW2         N/A                   
*BIG BEAR AIRP SUNNY     64  30  27 CALM      30.20S                  
*BIG PINES       N/A     71  16  12 CALM        N/A                   
*CHILAO          N/A     73  32  22 S5          N/A                   
SANDBERG       SUNNY     69  45  41 N7        30.08R                  
*WARM SPRINGS    N/A     72  44  36 W2          N/A                   

$$

CAZ028-029-059-060-099-311700-
ANTELOPE VALLEY AND SURROUNDING AREAS

  
CITY           SKY/WX    TMP DP  RH WIND       PRES   REMARKS
LANCASTER      SUNNY     75  46  35 CALM      29.96S                  
PALMDALE       SUNNY     74  48  39 SE3       29.97R                  
*POPPY PARK      N/A     78  47  33 W10         N/A                   

CITY           SKY/WX    TMP DP  RH WIND       PRES   REMARKS
29 PALMS       MOSUNNY   82  49  31 NW8       29.98S                  
BARSTOW/DAGGET SUNNY     79  48  33 W14       29.93R                  
BISHOP         SUNNY     75  28  17 NW3       30.03F                  
CHINA LAKE     SUNNY     75  45  34 CALM      29.94R                  
EDWARDS AFB    MOSUNNY   73  45  37 SW6       29.94S                  
MOJAVE         SUNNY     73  46  38 SE3       29.97S                  
NEEDLES        MOSUNNY   96  43  16 NE5       29.83R HX  92           
VICTORVILLE    SUNNY     72  46  40 CALM      29.98S                  

$$

CAZ039-040-311700-
VENTURA AND SANTA BARBARA COUNTY COAST

  
CITY           SKY/WX    TMP DP  RH WIND       PRES   REMARKS
CAMARILLO      SUNNY     72  63  73 CALM      29.90R                  
NWS OXNARD       N/A     73  64  72 CALM      29.90R                  
OXNARD AIRPORT CLOUDY    72  64  76 CALM      29.90R                  
*POINT MUGU    MOSUNNY   74  65  73 CALM      29.91R                  
SBA APT/GOLETA SUNNY     72  65  78 S3        29.89S                  
*SANTA BARBARA   N/A     74  64  71 W3        29.97S                  
*VENTURA         N/A     71  64  78 SW3       29.53R                  

$$

CAZ044-045-311700-
VENTURA COUNTY VALLEYS

  
CITY           SKY/WX    TMP DP  RH WIND       PRES   REMARKS
*SIMI VALLEY     N/A     71  62  72 CALM      29.86S                  
*OJAI            N/A     74  61  63 CALM      29.84R                  
*FILLMORE        N/A     69  64  85 CALM      29.81S                  

$$

CAZ053-311700-
VENTURA COUNTY MOUNTAINS

  
CITY           SKY/WX    TMP DP  RH WIND       PRES   REMARKS

$$

CAZ034-035-036-311700-
CENTRAL COAST AND SANTA YNEZ VALLEY

  
CITY           SKY/WX    TMP DP  RH WIND       PRES   REMARKS
SAN LUIS OBISP SUNNY     68  56  65 NW13      29.92S                  
SANTA MARIA    MOSUNNY   65  59  81 W8        29.94R                  

CITY           SKY/WX    TMP DP  RH WIND       PRES   REMARKS
*CAL POLY SLO    N/A     66  59  77 W6G13       N/A                   
*LOMPOC        PTSUNNY   64  55  72 NW5       29.95R                  
*PISMO BEACH     N/A     64  59  84 SW5       29.93S                  
*SANTA YNEZ    CLOUDY    55  55 100 CALM      29.95R                  

$$

CAZ037-038-051-311700-
SAN LUIS OBISPO COUNTY INTERIOR AND CUYAMA VALLEY

  
CITY           SKY/WX    TMP DP  RH WIND       PRES   REMARKS
*CUYAMA          N/A     67  47  48 E3        29.88S                  
PASO ROBLES    SUNNY     63  53  70 CALM      29.97R                  

$$

CAZ032-033-061-311700-
SOUTHERN DESERTS

  
CITY           SKY/WX    TMP DP  RH WIND       PRES   REMARKS
BLYTHE         MOSUNNY   91  49  23 CALM      29.81R                  
IMPERIAL       PTSUNNY   94  47  20 CALM      29.77R HX  90           
PALM SPRINGS   MOSUNNY   89  57  33 S3        29.81R                  
THERMAL        SUNNY     89  56  32 E3        29.76R                  

$$

ELSEWHERE ACROSS THE WESTERN UNITED STATES AND MEXICO

  
CITY           SKY/WX    TMP DP  RH WIND       PRES   REMARKS
DENVER, CO     CLOUDY    76  45  33 E6        30.13R                  
GRAND CANYON,  MOSUNNY   64  55  72 S7        30.29R                  
HONOLULU, HI   PTCLDY    79  73  83 N3        29.87S                  
KAHULUI, MAUI  LGT RAIN  79  73  83 E5        29.89R                  
LAKE TAHOE, CA SUNNY     56  34  43 CALM      30.17F                  
LAS VEGAS, NV  MOSUNNY   87  42  20 NW3       29.87R                  
MAMMOTH LAKES, FAIR      61  28  29 CALM      30.23F                  
MEXICO CITY, M MOSUNNY   64  54  68 NE2       30.37                   
PHOENIX, AZ    MOSUNNY   92  64  39 S8        29.89R HX  93           
PORTLAND, OR   CLOUDY    63  54  72 S8        30.06S                  
RENO, NV       MOSUNNY   61  28  28 CALM      30.11S                  
SALT LAKE CITY MOSUNNY   73  43  33 CALM      30.09S                  
SAN DIEGO, CA  CLOUDY    71  62  73 S9        29.93R                  
SAN FRANCISCO, MOSUNNY   66  57  72 CALM      29.95R                  
SAN JOSE, CA   SUNNY     65  54  67 CALM      29.95S                  
SEATTLE, WA    CLOUDY    63  51  65 S16G23    29.97F                  
TIJUANA, MEX   CLOUDY    70  59  68 S3        29.95R                  

$$
  
STATION/POSITION TIME  TEMP    WIND        PRES    VSBY  WAVE
                       AIR SEA DIR/SP/G                  HT/PER
                 (UTC) (F)     (DEG/KT/KT) (MB)    (MI)  (FT/S)
POINT ARGUELLO B NOT AVBL
WEST SANTA BARBA 1550   63 64  320/ 21/ 25 1011.9R         8/ 8
POINT CONCEPTION NOT AVBL
EAST SANTA BARBA 1500   67 70  210/ 10/ 12 1012.5R
SANTA MONICA BAY 1550   70 73  120/  4/  6 1012.5R         4/ 8

Return to Home page


Western Regional Climate Center, wrcc@dri.edu